Location: Santa Cristina
(46.5667°N, 11.7167°E)
Time: 17:10:18
(UTC+00:00)

CZ-4C R/B - Pass Details

Date: 21 April 2021
Orbit: 612 x 1390 km, 63.4° (Epoch: 11 May)

Event Time Altitude Azimuth Distance (km) Brightness Sun altitude
Rises 02:51:14 0° 313° (NW) 3,944 5.5 -13.7°
Reaches altitude 10° 02:54:09 10° 303° (WNW) 3,094 4.9 -13.3°
Maximum altitude 03:00:26 29° 247° (WSW) 2,159 3.7 -12.4°
Drops below altitude 10° 03:07:20 10° 192° (SSW) 3,417 4.9 -11.4°
Sets 03:10:45 0° 182° (S) 4,421 5.6 -10.9°
